When you browse on this site, cookies collect data to enhance your experience and personalize the content and advertising you see.
Visit our Privacy Policy to learn more. By continuing to use the site, you agree to this use of cookies and data.
  • In United Kingdom
  • List of Countries
  • For 7 days
  • Water Temperature
  • Satellite Maps
  • Weather Map
  • Weather Widgets
  • user-avatar
    Login

    Hourly Weather Mazari Sharif

    Today, 26 March, Tuesday

    Time Temperature Precipitation Wind Pressure Humidity
    00:00 +14°C° 0 mm 2 mps 656 mmHg 33%
    01:00 +13°C° 0 mm 2 mps 656 mmHg 33%
    02:00 +13°C° 0 mm 2 mps 656 mmHg 32%
    03:00 +13°C° 0 mm 2 mps 655 mmHg 30%
    04:00 +13°C° 0 mm 2 mps 655 mmHg 27%
    05:00 +13°C° 0 mm 2 mps 655 mmHg 27%
    06:00 +14°C° 0 mm 2 mps 655 mmHg 26%
    07:00 +15°C° 0 mm 2 mps 656 mmHg 25%
    08:00 +17°C° 0 mm 2 mps 656 mmHg 21%
    09:00 +19°C° 0 mm 2 mps 656 mmHg 18%
    10:00 +21°C° 0 mm 2 mps 657 mmHg 14%
    11:00 +23°C° 0 mm 2 mps 656 mmHg 15%
    12:00 +24°C° 0 mm 2 mps 656 mmHg 15%
    13:00 +25°C° 0 mm 2 mps 656 mmHg 15%
    14:00 +25°C° 0 mm 2 mps 656 mmHg 17%
    15:00 +24°C° 0 mm 2 mps 655 mmHg 20%
    16:00 +24°C° 0 mm 2 mps 655 mmHg 22%
    17:00 +23°C° 0.1 mm 2 mps 655 mmHg 25%
    18:00 +21°C° 0.1 mm 1 mps 655 mmHg 29%
    19:00 +20°C° 0.1 mm 1 mps 655 mmHg 32%
    20:00 +20°C° 0.1 mm 1 mps 655 mmHg 34%
    21:00 +18°C° 0.1 mm 0 mps 655 mmHg 36%
    22:00 +17°C° 0.1 mm 0 mps 655 mmHg 37%
    23:00 +19°C° 0.3 mm 1 mps 655 mmHg 38%

    Tomorrow, 27 March, Wednesday

    Time Temperature Precipitation Wind Pressure Humidity
    00:00 +18°C° 0.3 mm 2 mps 655 mmHg 39%
    01:00 +17°C° 0.3 mm 3 mps 655 mmHg 40%
    02:00 +17°C° 0.1 mm 3 mps 655 mmHg 41%
    03:00 +17°C° 0.1 mm 3 mps 655 mmHg 42%
    04:00 +16°C° 0.1 mm 3 mps 655 mmHg 42%
    05:00 +17°C° 0.2 mm 3 mps 655 mmHg 42%
    06:00 +17°C° 0.2 mm 3 mps 655 mmHg 42%
    07:00 +17°C° 0.2 mm 3 mps 655 mmHg 41%
    08:00 +17°C° 0.9 mm 3 mps 655 mmHg 45%
    09:00 +17°C° 0.9 mm 2 mps 655 mmHg 48%
    10:00 +17°C° 0.9 mm 2 mps 655 mmHg 51%
    11:00 +19°C° 0.1 mm 2 mps 655 mmHg 46%
    12:00 +21°C° 0.1 mm 2 mps 655 mmHg 40%
    13:00 +24°C° 0.1 mm 1 mps 656 mmHg 34%
    14:00 +24°C° 0.2 mm 2 mps 656 mmHg 35%
    15:00 +24°C° 0.2 mm 2 mps 655 mmHg 35%
    16:00 +23°C° 0.2 mm 2 mps 655 mmHg 36%
    17:00 +21°C° 0.4 mm 2 mps 655 mmHg 41%
    18:00 +20°C° 0.4 mm 2 mps 655 mmHg 46%
    19:00 +19°C° 0.4 mm 2 mps 655 mmHg 50%
    20:00 +18°C° 0.3 mm 2 mps 655 mmHg 54%
    21:00 +18°C° 0.3 mm 1 mps 654 mmHg 59%
    22:00 +16°C° 0.3 mm 1 mps 654 mmHg 63%
    23:00 +16°C° 0.1 mm 1 mps 654 mmHg 62%

    Day after tomorrow, 28 March, Thursday

    Time Temperature Precipitation Wind Pressure Humidity
    00:00 +15°C° 0.1 mm 1 mps 654 mmHg 62%
    01:00 +15°C° 0.1 mm 1 mps 654 mmHg 61%
    02:00 +15°C° 0.4 mm 2 mps 654 mmHg 63%
    03:00 +15°C° 0.4 mm 2 mps 654 mmHg 64%
    04:00 +14°C° 0.4 mm 3 mps 655 mmHg 65%
    05:00 +15°C° 0.4 mm 2 mps 655 mmHg 63%
    06:00 +16°C° 0.4 mm 2 mps 656 mmHg 62%
    07:00 +16°C° 0.4 mm 2 mps 656 mmHg 60%
    08:00 +17°C° 0.1 mm 2 mps 657 mmHg 54%
    09:00 +19°C° 0.1 mm 2 mps 657 mmHg 47%
    10:00 +20°C° 0.1 mm 2 mps 658 mmHg 41%
    11:00 +21°C° 0.6 mm 2 mps 657 mmHg 40%
    12:00 +21°C° 0.6 mm 3 mps 657 mmHg 39%
    13:00 +22°C° 0.6 mm 3 mps 657 mmHg 37%
    14:00 +22°C° 0.9 mm 3 mps 656 mmHg 38%
    15:00 +22°C° 0.9 mm 3 mps 656 mmHg 40%
    16:00 +22°C° 0.9 mm 4 mps 655 mmHg 41%
    17:00 +21°C° 0.4 mm 3 mps 655 mmHg 46%
    18:00 +20°C° 0.4 mm 3 mps 654 mmHg 52%
    19:00 +18°C° 0.4 mm 3 mps 654 mmHg 58%
    20:00 +18°C° 0 mm 3 mps 654 mmHg 57%
    21:00 +18°C° 0 mm 3 mps 653 mmHg 57%
    22:00 +18°C° 0 mm 3 mps 653 mmHg 57%
    23:00 +17°C° 0 mm 3 mps 653 mmHg 57%

    29 March, Friday

    Time Temperature Precipitation Wind Pressure Humidity
    00:00 +16°C° 0 mm 3 mps 652 mmHg 57%
    01:00 +14°C° 0 mm 3 mps 651 mmHg 57%
    02:00 +14°C° 0 mm 2 mps 651 mmHg 64%
    03:00 +14°C° 0 mm 2 mps 651 mmHg 71%
    04:00 +13°C° 0 mm 2 mps 650 mmHg 78%
    05:00 +12°C° 0.2 mm 3 mps 651 mmHg 80%
    06:00 +12°C° 0.2 mm 4 mps 651 mmHg 82%
    07:00 +12°C° 0.2 mm 5 mps 652 mmHg 84%
    08:00 +13°C° 0.2 mm 4 mps 652 mmHg 77%
    09:00 +13°C° 0.2 mm 3 mps 652 mmHg 70%
    10:00 +15°C° 0.2 mm 2 mps 652 mmHg 64%
    11:00 +16°C° 0.6 mm 2 mps 652 mmHg 62%
    12:00 +17°C° 0.6 mm 3 mps 652 mmHg 60%
    13:00 +17°C° 0.6 mm 4 mps 652 mmHg 58%
    14:00 +15°C° 1 mm 5 mps 652 mmHg 64%
    15:00 +13°C° 1 mm 6 mps 651 mmHg 71%
    16:00 +11°C° 1 mm 8 mps 651 mmHg 78%
    17:00 +9°C° 1.6 mm 7 mps 652 mmHg 78%
    18:00 +8°C° 1.6 mm 7 mps 653 mmHg 79%
    19:00 +5°C° 1.6 mm 6 mps 653 mmHg 80%
    20:00 +5°C° 0.1 mm 6 mps 654 mmHg 76%
    21:00 +7°C° 0.1 mm 5 mps 655 mmHg 73%
    22:00 +7°C° 0.1 mm 5 mps 656 mmHg 69%
    23:00 +7°C° 0.2 mm 4 mps 656 mmHg 71%

    30 March, Saturday

    Time Temperature Precipitation Wind Pressure Humidity
    00:00 +6°C° 0.2 mm 4 mps 656 mmHg 73%
    01:00 +6°C° 0.2 mm 4 mps 656 mmHg 74%
    02:00 +7°C° 0.3 mm 3 mps 657 mmHg 74%
    03:00 +7°C° 0.3 mm 3 mps 657 mmHg 74%
    04:00 +7°C° 0.3 mm 3 mps 657 mmHg 74%
    05:00 +7°C° 0.2 mm 2 mps 658 mmHg 71%
    06:00 +8°C° 0.2 mm 2 mps 658 mmHg 68%
    07:00 +9°C° 0.2 mm 1 mps 659 mmHg 65%
    08:00 +10°C° 0 mm 1 mps 659 mmHg 61%
    09:00 +12°C° 0 mm 1 mps 659 mmHg 56%
    10:00 +13°C° 0 mm 2 mps 659 mmHg 51%
    11:00 +14°C° 0 mm 2 mps 659 mmHg 50%
    12:00 +15°C° 0 mm 2 mps 659 mmHg 48%
    13:00 +14°C° 0 mm 3 mps 659 mmHg 46%
    14:00 +14°C° 0 mm 3 mps 658 mmHg 47%
    15:00 +14°C° 0 mm 3 mps 658 mmHg 49%
    16:00 +16°C° 0 mm 3 mps 658 mmHg 50%
    17:00 +14°C° 0 mm 3 mps 658 mmHg 54%
    18:00 +14°C° 0 mm 2 mps 658 mmHg 58%
    19:00 +13°C° 0 mm 2 mps 658 mmHg 63%
    20:00 +13°C° 0 mm 2 mps 658 mmHg 65%
    21:00 +12°C° 0 mm 2 mps 658 mmHg 67%
    22:00 +12°C° 0 mm 1 mps 658 mmHg 69%
    23:00 +11°C° 0 mm 1 mps 658 mmHg 70%

    31 March, Sunday

    Time Temperature Precipitation Wind Pressure Humidity
    00:00 +11°C° 0 mm 1 mps 657 mmHg 71%
    01:00 +11°C° 0 mm 1 mps 657 mmHg 72%
    02:00 +10°C° 0 mm 1 mps 657 mmHg 73%
    03:00 +10°C° 0 mm 1 mps 657 mmHg 73%
    04:00 +10°C° 0 mm 1 mps 657 mmHg 74%
    05:00 +11°C° 0 mm 1 mps 657 mmHg 68%
    06:00 +12°C° 0 mm 1 mps 658 mmHg 63%
    07:00 +13°C° 0 mm 1 mps 658 mmHg 57%
    08:00 +14°C° 0 mm 1 mps 659 mmHg 49%
    09:00 +16°C° 0 mm 1 mps 659 mmHg 40%
    10:00 +17°C° 0 mm 2 mps 660 mmHg 32%
    11:00 +18°C° 0 mm 2 mps 659 mmHg 31%
    12:00 +18°C° 0 mm 2 mps 659 mmHg 30%
    13:00 +19°C° 0 mm 3 mps 659 mmHg 30%
    14:00 +18°C° 0 mm 3 mps 659 mmHg 30%
    15:00 +18°C° 0 mm 2 mps 659 mmHg 30%
    16:00 +18°C° 0 mm 2 mps 659 mmHg 30%
    17:00 +18°C° 0 mm 1 mps 659 mmHg 34%
    18:00 +16°C° 0 mm 1 mps 658 mmHg 38%
    19:00 +15°C° 0 mm 1 mps 658 mmHg 43%
    20:00 +13°C° 0 mm 0 mps 658 mmHg 44%
    21:00 +13°C° 0 mm 0 mps 658 mmHg 45%
    22:00 +12°C° 0 mm 0 mps 658 mmHg 47%
    23:00 +12°C° 0 mm 0 mps 658 mmHg 48%
    Show more